Estación de Tranapuente INIA

Ultimos registro cada 15 minutos 73
Estación Fecha / Hora Temperatura Humedad Lluvia Velocidad Dirección Radiación Presion
73 Tranapuente INIA 09-05-2026 18:00 10,9 73,1 0 0 0 6 1016
72 Tranapuente INIA 09-05-2026 17:45 11,6 66,3 0 0 0 11 1016
71 Tranapuente INIA 09-05-2026 17:30 12,4 65,7 0 0 250 20 1016
70 Tranapuente INIA 09-05-2026 17:15 13,1 62,1 0 0,2 250 68 1016
69 Tranapuente INIA 09-05-2026 17:00 13,6 58,8 0 0 0 148 1016
68 Tranapuente INIA 09-05-2026 16:45 13,6 58,1 0 0,2 269 185 1016
67 Tranapuente INIA 09-05-2026 16:30 13,8 55,6 0 0,1 252 223 1016
66 Tranapuente INIA 09-05-2026 16:15 14 54,2 0 1,2 251 259 1016
65 Tranapuente INIA 09-05-2026 16:00 14,2 48,2 0 1,6 245 296 1016
64 Tranapuente INIA 09-05-2026 15:45 14,4 47,2 0 1,6 256 328 1016
63 Tranapuente INIA 09-05-2026 15:30 14,7 46,8 0 0,9 238 359 1016
62 Tranapuente INIA 09-05-2026 15:15 14,6 46,7 0 1,7 220 387 1017
61 Tranapuente INIA 09-05-2026 15:00 14,5 43,6 0 1 227 413 1017
60 Tranapuente INIA 09-05-2026 14:45 14,2 49,3 0 2 250 433 1017
59 Tranapuente INIA 09-05-2026 14:30 14,4 48,4 0 1,9 244 454 1017
58 Tranapuente INIA 09-05-2026 14:15 14,6 53,1 0 2,1 226 471 1017
57 Tranapuente INIA 09-05-2026 14:00 14,6 56,4 0 1,2 236 487 1017
56 Tranapuente INIA 09-05-2026 13:45 14,5 47,6 0 1,3 225 499 1017
55 Tranapuente INIA 09-05-2026 13:30 14,3 43,7 0 1,4 210 509 1017
54 Tranapuente INIA 09-05-2026 13:15 14,1 49,1 0 2,6 220 513 1018
53 Tranapuente INIA 09-05-2026 13:00 14 48,4 0 1,2 204 515 1018
52 Tranapuente INIA 09-05-2026 12:45 13,4 50,3 0 0,1 247 515 1018
51 Tranapuente INIA 09-05-2026 12:30 13 52,1 0 0 0 510 1018
50 Tranapuente INIA 09-05-2026 12:15 12,4 55,9 0 0,5 160 502 1018
49 Tranapuente INIA 09-05-2026 12:00 11,8 54,9 0 1,8 154 482 1018
48 Tranapuente INIA 09-05-2026 11:45 11,6 54,7 0 1,5 152 469 1018
47 Tranapuente INIA 09-05-2026 11:30 11,3 57,2 0 2,1 134 453 1019
46 Tranapuente INIA 09-05-2026 11:15 11 55,8 0 2,2 133 442 1019
45 Tranapuente INIA 09-05-2026 11:00 10,8 58,5 0 2,3 120 419 1019
44 Tranapuente INIA 09-05-2026 10:45 10,7 59,8 0 1,4 124 389 1019
43 Tranapuente INIA 09-05-2026 10:30 10,4 55,8 0 1 132 365 1019
42 Tranapuente INIA 09-05-2026 10:15 10,2 61,3 0 1 119 333 1019
41 Tranapuente INIA 09-05-2026 10:00 10,1 66,8 0 0 88 300 1019
40 Tranapuente INIA 09-05-2026 09:45 9,2 71 0 0 0 262 1019
39 Tranapuente INIA 09-05-2026 09:30 8,8 73,1 0 0 0 231 1019
38 Tranapuente INIA 09-05-2026 09:15 8,4 75,6 0 0 0 201 1019
37 Tranapuente INIA 09-05-2026 09:00 6,8 69,6 0 0 0 82 1019
36 Tranapuente INIA 09-05-2026 08:45 4,4 82,5 0 0 0 98 1019
35 Tranapuente INIA 09-05-2026 08:30 3,2 91,7 0 0 0 87 1019
34 Tranapuente INIA 09-05-2026 08:15 2,6 93,9 0 0 0 46 1019
33 Tranapuente INIA 09-05-2026 08:00 2,3 95,7 0 0 0 9 1019
32 Tranapuente INIA 09-05-2026 07:45 3,1 93,4 0 0 0 2 1019
31 Tranapuente INIA 09-05-2026 07:30 3,9 85,3 0 0 0 0 1019
30 Tranapuente INIA 09-05-2026 07:15 4,1 81,6 0 0 0 0 1019
29 Tranapuente INIA 09-05-2026 07:00 4,1 81,1 0 0 0 0 1019
28 Tranapuente INIA 09-05-2026 06:45 3,3 82,1 0 0 0 0 1019
27 Tranapuente INIA 09-05-2026 06:30 3,8 89,5 0 0 0 0 1019
26 Tranapuente INIA 09-05-2026 06:15 3,4 82,1 0 0 0 0 1019
25 Tranapuente INIA 09-05-2026 06:00 2,9 95,5 0 0 0 0 1019
24 Tranapuente INIA 09-05-2026 05:45 3,1 95,4 0 0 0 0 1019
23 Tranapuente INIA 09-05-2026 05:30 3,3 95,7 0 0 350 0 1018
22 Tranapuente INIA 09-05-2026 05:15 3,6 94,2 0 0,1 3 0 1018
21 Tranapuente INIA 09-05-2026 05:00 3,4 95,4 0 0 0 0 1018
20 Tranapuente INIA 09-05-2026 04:45 3,3 95,8 0 0,1 3 0 1019
19 Tranapuente INIA 09-05-2026 04:30 3 98,4 0 0 0 0 1019
18 Tranapuente INIA 09-05-2026 04:15 3 98,8 0,1 0 0 0 1019
17 Tranapuente INIA 09-05-2026 04:00 3,1 99,4 0 0 0 0 1019
16 Tranapuente INIA 09-05-2026 03:45 3,2 99,1 0 0 0 0 1019
15 Tranapuente INIA 09-05-2026 03:30 3,2 98 0 0 0 0 1019
14 Tranapuente INIA 09-05-2026 03:15 3,2 99,5 0 0 0 0 1019
13 Tranapuente INIA 09-05-2026 03:00 3,2 99,2 0 0 0 0 1019
12 Tranapuente INIA 09-05-2026 02:45 3,5 98,4 0 0,1 338 0 1020
11 Tranapuente INIA 09-05-2026 02:30 3,6 97,9 0 0,3 324 0 1020
10 Tranapuente INIA 09-05-2026 02:15 3,6 99,9 0 0,1 323 0 1020
9 Tranapuente INIA 09-05-2026 02:00 3,3 99,2 0 0 0 0 1020
8 Tranapuente INIA 09-05-2026 01:45 4 98,3 0 0 0 0 1020
7 Tranapuente INIA 09-05-2026 01:30 3,8 99,4 0 0 0 0 1020
6 Tranapuente INIA 09-05-2026 01:15 3,9 98,6 0 0 0 0 1020
5 Tranapuente INIA 09-05-2026 01:00 4,3 98 0 0 0 0 1020
4 Tranapuente INIA 09-05-2026 00:45 4,1 99,7 0 0 0 0 1020
3 Tranapuente INIA 09-05-2026 00:30 4,2 98,9 0 0,2 331 0 1020
2 Tranapuente INIA 09-05-2026 00:15 4,3 98 0 0,4 332 0 1019
1 Tranapuente INIA 09-05-2026 00:00 4,3 98,4 0 0,2 321 0 1019